Simultaneous Nadir Overpasses (SNOs) Predictions

Prediction of SNOs between LANDSAT-8 and TERRA Satellite Orbit:

Table of predicted SNOs for the next 14.0 days since TLE Epoch: 6/14/2024
Index Date (LANDSAT-8) Time (LANDSAT-8) Lat,Lon (LANDSAT-8) SZA (LANDSAT-8 ) Date (TERRA) Time (TERRA) Lat,Lon (TERRA) SZA (TERRA ) Distance(km) Time Diff (sec)
1 06/21/2024 08:12:37 81.73, 127.89 64.04 06/21/2024 08:13:50 81.73, 127.74 64.07 2.43 73
2 06/21/2024 09:02:04 -81.73, -64.60 115.98 06/21/2024 09:03:12 -81.74, -64.70 115.95 1.54 68
3 06/21/2024 09:51:30 81.73, 103.23 64.05 06/21/2024 09:52:32 81.73, 103.10 64.07 1.98 62
4 06/21/2024 10:40:57 -81.73, -89.27 115.97 06/21/2024 10:41:54 -81.74, -89.33 115.95 1.10 57
5 06/21/2024 11:30:23 81.73, 78.56 64.06 06/21/2024 11:31:14 81.73, 78.47 64.08 1.54 51
6 06/21/2024 12:19:50 -81.73,-113.94 115.96 06/21/2024 12:20:36 -81.73,-113.97 115.94 0.67 46
7 06/21/2024 13:09:16 81.73, 53.90 64.07 06/21/2024 13:09:56 81.73, 53.83 64.08 1.10 40
8 06/21/2024 13:58:43 -81.73,-138.60 115.96 06/21/2024 13:59:18 -81.73,-138.61 115.94 0.30 35
9 06/21/2024 14:48:09 81.73, 29.23 64.07 06/21/2024 14:48:38 81.73, 29.19 64.08 0.66 29
10 06/21/2024 15:37:36 -81.73,-163.27 115.95 06/21/2024 15:38:00 -81.73,-163.25 115.93 0.37 24
11 06/21/2024 16:27:02 81.73, 4.56 64.08 06/21/2024 16:27:20 81.73, 4.55 64.09 0.23 18
12 06/21/2024 17:16:29 -81.73, 172.07 115.94 06/21/2024 17:16:42 -81.73, 172.11 115.93 0.76 13
13 06/21/2024 18:05:55 81.73, -20.11 64.09 06/21/2024 18:06:02 81.73, -20.09 64.09 0.26 7
14 06/21/2024 18:55:21 -81.72, 147.82 115.88 06/21/2024 18:55:23 -81.71, 147.88 115.87 1.17 2
15 06/21/2024 19:44:48 81.72, -44.77 64.09 06/21/2024 19:44:44 81.72, -44.73 64.10 0.69 4
16 06/21/2024 20:34:14 -81.72, 123.15 115.87 06/21/2024 20:34:05 -81.71, 123.24 115.87 1.59 9
17 06/21/2024 21:23:41 81.72, -69.44 64.10 06/21/2024 21:23:26 81.72, -69.37 64.10 1.13 15
18 06/21/2024 22:13:07 -81.72, 98.48 115.87 06/21/2024 22:12:47 -81.71, 98.60 115.86 2.02 20
19 06/21/2024 23:02:34 81.72, -94.11 64.11 06/21/2024 23:02:08 81.72, -94.01 64.11 1.57 26
20 06/21/2024 23:51:59 -81.72, 73.82 115.86 06/21/2024 23:51:28 -81.71, 73.96 115.86 2.45 31
21 06/22/2024 00:41:25 81.71,-118.36 64.17 06/22/2024 00:40:48 81.70,-118.24 64.16 2.01 37
22 06/22/2024 01:30:52 -81.71, 49.15 115.85 06/22/2024 01:30:10 -81.71, 49.32 115.85 2.89 42
23 06/22/2024 02:20:18 81.71,-143.02 64.18 06/22/2024 02:19:30 81.70,-142.88 64.17 2.44 48
24 06/22/2024 03:09:45 -81.71, 24.48 115.84 06/22/2024 03:08:52 -81.71, 24.68 115.85 3.33 53
25 06/22/2024 03:59:11 81.71,-167.69 64.19 06/22/2024 03:58:12 81.70,-167.52 64.17 2.87 59
26 06/22/2024 04:48:37 -81.70, 0.23 115.78 06/22/2024 04:47:34 -81.71, 0.04 115.84 2.99 63



Historial Predications of SNOs between LANDSAT-8 and TERRA
